Погода в Тоцком

Россия / Оренбургская область     52°31′30″N   52°44′40″E
темп.,
°C
ветер,
м/с
пор.,
м/с
влажн.,
%
обл.,
%
осадки,
мм/ч
давл.,
гПа
погр.,
м
24 сентября, пт
пт2423:00+16ююв61231100 0.0 1019695
02:00+12юв91662100 0.4 1019706
05:00+13юв81748100 0.7 1019759
08:00+13юв10183798 0.0 1018724
11:00+15юв81333100 0.0 1019896
14:00+13юв81334100 0.0 1019784
17:00+14вюв81329100 0.0 1017866
20:00+15вюв71523100 0.0 1015744
25 сентября, сб
сб2523:00+16юв91624100 0.0 1013816
02:00+15юв91625100 0.0 1012763
05:00+13вюв61228100 0.0 1012622
08:00+12вюв71239100 0.3 1010508
11:00+10вюв71262100 0.5 1011562
14:00+14в364397 0.0 1009502
17:00+18юв4528100 0.0 10081191
20:00+12вюв59563 0.0 1009178
26 сентября, вс
вс2623:00+9в2288100 0.0 100915
02:00+9ссв1187100 0.0 100811
05:00+10сз2283100 0.0 100813
08:00+9сз2381100 0.0 100881
11:00+13ссз2362100 0.0 1008437
14:00+15зсз3348100 0.0 1008903
17:00+16сз3347100 0.0 10081332
20:00+12ссв226538 0.0 100817
27 сентября, пн
пн2723:00+11св2268100 0.0 100729
02:00+11св3664100 0.0 1007181
05:00+10в6961100 0.0 1007347
08:00+9всв61065100 0.2 1007472
11:00+9в71171100 0.3 1009738
14:00+8всв8869100 0.1 1011857
17:00+6всв71081100 0.3 1013979
20:00+6всв6106687 0.1 1015969
28 сентября, вт
вт2823:00+5св5117082 0.1 1017602
02:00+5св511615 0.0 1018441
05:00+3св511625 0.0 1020344
08:00+2св511664 0.0 1022352
11:00+7всв574533 0.0 1024870
14:00+10св45325 0.0 10241343
17:00+11ссв45305 0.0 10241535
20:00+7с3340100 0.0 102549